Location: Unspecified
(35.6961°N, 0.0000°E)
Time: 02:43:52
(UTC+00:00)

Explorer 11/Cluster Stage 4 - Pass Details

Date: 31 May 2019
Orbit: 467 x 1260 km, 28.8° (Epoch: 16 June)

Event Time Altitude Azimuth Distance (km) Brightness Sun altitude
Rises 22:19:46 0° 226° (SW) 4,194 10.1 -27.8°
Enters shadow 22:20:04 - 225° (SW) 4,105 10.1 -27.9°
Reaches altitude 10° 22:23:10 10° 216° (SW) 3,211 - -28.1°
Maximum altitude 22:29:55 29° 160° (SSE) 2,008 - -28.7°
Drops below altitude 10° 22:36:04 10° 104° (ESE) 2,918 - -29.2°
Sets 22:39:00 0° 93° (E) 3,758 - -29.4°
